Location: *
(53.9002°N, 27.5624°E)
Time: 13:44:37
(UTC+00:00)

Cosmos 2278 Rocket - Pass Details

Date: 12 November 2019
Orbit: 840 x 846 km, 71.0° (Epoch: 06 December)

Event Time Altitude Azimuth Distance (km) Brightness Sun altitude
Rises 16:54:38 0° 310° (NW) 3,417 6.2 -23.2°
Reaches altitude 10° 16:58:23 10° 334° (NNW) 2,481 5.0 -23.7°
Maximum altitude 17:01:24 14° 6° (N) 2,184 4.3 -24.2°
Enters shadow 17:02:28 14° 19° (NNE) 2,223 4.2 -24.3°
